owner,sensor,date,latitude,longitude,vertical_datum,sea_water_temperature,qcFlag
BP,ioos:station:wmo:42880:2,2023-02-01T00:08:00Z,27.2239,-90.0135,10.9,22.8,11111222
BP,ioos:station:wmo:42880:2,2023-02-01T00:18:00Z,27.2240,-90.0135,10.8,22.8,11111222
BP,ioos:station:wmo:42880:2,2023-02-01T00:28:00Z,27.2239,-90.0135,11.0,22.8,11111222
BP,ioos:station:wmo:42880:2,2023-02-01T00:38:00Z,27.2239,-90.0135,11.0,22.8,11111222
BP,ioos:station:wmo:42880:2,2023-02-01T00:48:00Z,27.2239,-90.0135,11.1,22.8,11111222
BP,ioos:station:wmo:42880:2,2023-02-01T00:58:00Z,27.2239,-90.0135,11.1,22.8,11111222
BP,ioos:station:wmo:42880:2,2023-02-01T01:08:00Z,27.2239,-90.0135,11.0,22.8,11111222
BP,ioos:station:wmo:42880:2,2023-02-01T01:18:00Z,27.2240,-90.0135,11.0,22.8,11111222
BP,ioos:station:wmo:42880:2,2023-02-01T01:28:00Z,27.2239,-90.0135,11.0,22.8,11111222
BP,ioos:station:wmo:42880:2,2023-02-01T01:38:00Z,27.2239,-90.0135,11.0,22.8,11111222
BP,ioos:station:wmo:42880:2,2023-02-01T01:48:00Z,27.2240,-90.0134,11.1,22.8,11111222
BP,ioos:station:wmo:42880:2,2023-02-01T01:58:00Z,27.2240,-90.0134,10.8,22.8,11111222
BP,ioos:station:wmo:42880:2,2023-02-01T02:08:00Z,27.2240,-90.0134,11.0,22.8,11111222
BP,ioos:station:wmo:42880:2,2023-02-01T02:18:00Z,27.2240,-90.0134,11.0,22.8,11111222
BP,ioos:station:wmo:42880:2,2023-02-01T02:28:00Z,27.2240,-90.0134,11.1,22.7,11111222
BP,ioos:station:wmo:42880:2,2023-02-01T02:38:00Z,27.2240,-90.0134,11.0,22.7,11111222
BP,ioos:station:wmo:42880:2,2023-02-01T02:48:00Z,27.2240,-90.0134,11.0,22.7,11111222
BP,ioos:station:wmo:42880:2,2023-02-01T02:58:00Z,27.2240,-90.0134,11.0,22.7,11111222
BP,ioos:station:wmo:42880:2,2023-02-01T03:08:00Z,27.2240,-90.0134,11.1,22.7,11111222
BP,ioos:station:wmo:42880:2,2023-02-01T03:18:00Z,27.2240,-90.0134,11.1,22.8,11111222
BP,ioos:station:wmo:42880:2,2023-02-01T03:28:00Z,27.2240,-90.0134,11.2,22.7,11111222
BP,ioos:station:wmo:42880:2,2023-02-01T03:38:00Z,27.2240,-90.0134,11.1,22.7,11111222
BP,ioos:station:wmo:42880:2,2023-02-01T03:48:00Z,27.2240,-90.0134,11.1,22.8,11111222
BP,ioos:station:wmo:42880:2,2023-02-01T03:58:00Z,27.2240,-90.0134,11.1,22.8,11111222
BP,ioos:station:wmo:42880:2,2023-02-01T04:08:00Z,27.2240,-90.0134,11.0,22.7,11111222
BP,ioos:station:wmo:42880:2,2023-02-01T04:18:00Z,27.2240,-90.0134,11.0,22.7,11111222
BP,ioos:station:wmo:42880:2,2023-02-01T04:28:00Z,27.2240,-90.0134,10.9,22.8,11111222
BP,ioos:station:wmo:42880:2,2023-02-01T04:38:00Z,27.2240,-90.0134,10.9,22.8,11111222
BP,ioos:station:wmo:42880:2,2023-02-01T04:48:00Z,27.2240,-90.0134,11.0,22.8,11111222
BP,ioos:station:wmo:42880:2,2023-02-01T04:58:00Z,27.2240,-90.0134,11.0,22.8,11111222
BP,ioos:station:wmo:42880:2,2023-02-01T05:08:00Z,27.2237,-90.0131,11.0,22.9,11111222
BP,ioos:station:wmo:42880:2,2023-02-01T05:18:00Z,27.2233,-90.0126,11.0,22.9,11111222
BP,ioos:station:wmo:42880:2,2023-02-01T05:28:00Z,27.2228,-90.0122,10.9,22.8,11111222
BP,ioos:station:wmo:42880:2,2023-02-01T05:38:00Z,27.2224,-90.0118,11.0,22.8,11111222
BP,ioos:station:wmo:42880:2,2023-02-01T05:48:00Z,27.2220,-90.0114,10.9,22.8,11111222
BP,ioos:station:wmo:42880:2,2023-02-01T05:58:00Z,27.2216,-90.0110,10.9,22.8,11111222
BP,ioos:station:wmo:42880:2,2023-02-01T06:08:00Z,27.2212,-90.0106,11.0,22.8,11111222
BP,ioos:station:wmo:42880:2,2023-02-01T06:18:00Z,27.2208,-90.0101,10.8,22.8,11111222
BP,ioos:station:wmo:42880:2,2023-02-01T06:28:00Z,27.2206,-90.0100,11.0,22.8,11111222
BP,ioos:station:wmo:42880:2,2023-02-01T06:38:00Z,27.2206,-90.0100,10.9,22.8,11111222
BP,ioos:station:wmo:42880:2,2023-02-01T06:48:00Z,27.2206,-90.0100,10.9,22.8,11111222
BP,ioos:station:wmo:42880:2,2023-02-01T06:58:00Z,27.2206,-90.0100,10.9,22.9,11111222
BP,ioos:station:wmo:42880:2,2023-02-01T07:08:00Z,27.2206,-90.0100,10.9,22.9,11111222
BP,ioos:station:wmo:42880:2,2023-02-01T07:18:00Z,27.2206,-90.0100,10.9,22.9,11111222
BP,ioos:station:wmo:42880:2,2023-02-01T07:28:00Z,27.2206,-90.0100,10.8,22.9,11111222
BP,ioos:station:wmo:42880:2,2023-02-01T07:38:00Z,27.2206,-90.0100,10.8,22.9,11111222
BP,ioos:station:wmo:42880:2,2023-02-01T07:48:00Z,27.2206,-90.0100,10.8,22.9,11111222
BP,ioos:station:wmo:42880:2,2023-02-01T07:58:00Z,27.2206,-90.0100,10.9,22.9,11111222
BP,ioos:station:wmo:42880:2,2023-02-01T08:08:00Z,27.2206,-90.0100,10.9,22.9,11111222
BP,ioos:station:wmo:42880:2,2023-02-01T08:18:00Z,27.2206,-90.0100,11.1,22.9,11111222
BP,ioos:station:wmo:42880:2,2023-02-01T08:28:00Z,27.2206,-90.0100,11.2,22.9,11111222
BP,ioos:station:wmo:42880:2,2023-02-01T08:38:00Z,27.2206,-90.0100,11.1,22.9,11111222
BP,ioos:station:wmo:42880:2,2023-02-01T08:48:00Z,27.2206,-90.0100,11.2,22.9,11111222
BP,ioos:station:wmo:42880:2,2023-02-01T08:58:00Z,27.2206,-90.0100,11.0,23.0,11111222
BP,ioos:station:wmo:42880:2,2023-02-01T09:08:00Z,27.2206,-90.0100,11.0,22.9,11111222
BP,ioos:station:wmo:42880:2,2023-02-01T09:18:00Z,27.2206,-90.0100,11.1,22.8,11111222
BP,ioos:station:wmo:42880:2,2023-02-01T09:28:00Z,27.2206,-90.0100,11.1,22.8,11111222
BP,ioos:station:wmo:42880:2,2023-02-01T09:38:00Z,27.2206,-90.0100,11.0,22.8,11111222
BP,ioos:station:wmo:42880:2,2023-02-01T09:48:00Z,27.2206,-90.0100,11.2,22.9,11111222
BP,ioos:station:wmo:42880:2,2023-02-01T09:58:00Z,27.2206,-90.0100,11.0,22.9,11111222
BP,ioos:station:wmo:42880:2,2023-02-01T10:08:00Z,27.2206,-90.0100,11.0,22.7,11111222
BP,ioos:station:wmo:42880:2,2023-02-01T10:18:00Z,27.2206,-90.0100,11.1,22.7,11111222
BP,ioos:station:wmo:42880:2,2023-02-01T10:28:00Z,27.2206,-90.0100,11.0,22.7,11111222
BP,ioos:station:wmo:42880:2,2023-02-01T10:38:00Z,27.2206,-90.0100,11.0,22.7,11111222
BP,ioos:station:wmo:42880:2,2023-02-01T10:48:00Z,27.2206,-90.0100,11.1,22.7,11111222
BP,ioos:station:wmo:42880:2,2023-02-01T10:58:00Z,27.2206,-90.0100,11.0,22.7,11111222
BP,ioos:station:wmo:42880:2,2023-02-01T11:08:00Z,27.2206,-90.0100,11.1,22.7,11111222
BP,ioos:station:wmo:42880:2,2023-02-01T11:18:00Z,27.2206,-90.0100,11.0,22.8,11111222
BP,ioos:station:wmo:42880:2,2023-02-01T11:28:00Z,27.2206,-90.0100,11.1,22.8,11111222
BP,ioos:station:wmo:42880:2,2023-02-01T11:38:00Z,27.2206,-90.0100,10.8,22.8,11111222
BP,ioos:station:wmo:42880:2,2023-02-01T11:48:00Z,27.2206,-90.0100,11.0,22.8,11111222
BP,ioos:station:wmo:42880:2,2023-02-01T11:58:00Z,27.2206,-90.0100,11.0,22.7,11111222
BP,ioos:station:wmo:42880:2,2023-02-01T12:08:00Z,27.2206,-90.0100,11.2,22.7,11111222
BP,ioos:station:wmo:42880:2,2023-02-01T12:18:00Z,27.2206,-90.0100,11.0,22.7,11111222
BP,ioos:station:wmo:42880:2,2023-02-01T12:28:00Z,27.2206,-90.0100,11.2,22.8,11111222
BP,ioos:station:wmo:42880:2,2023-02-01T12:38:00Z,27.2206,-90.0100,11.1,22.8,11111222
BP,ioos:station:wmo:42880:2,2023-02-01T12:48:00Z,27.2206,-90.0100,11.0,22.8,11111222
BP,ioos:station:wmo:42880:2,2023-02-01T12:58:00Z,27.2206,-90.0100,11.1,22.8,11111222
BP,ioos:station:wmo:42880:2,2023-02-01T13:08:00Z,27.2206,-90.0100,11.0,22.8,11111222
BP,ioos:station:wmo:42880:2,2023-02-01T13:18:00Z,27.2206,-90.0100,10.9,22.8,11111222
BP,ioos:station:wmo:42880:2,2023-02-01T13:28:00Z,27.2206,-90.0100,10.9,22.8,11111222
BP,ioos:station:wmo:42880:2,2023-02-01T13:38:00Z,27.2206,-90.0100,11.0,22.7,11111222
BP,ioos:station:wmo:42880:2,2023-02-01T13:48:00Z,27.2206,-90.0100,10.9,22.8,11111222
BP,ioos:station:wmo:42880:2,2023-02-01T13:58:00Z,27.2206,-90.0100,11.0,22.8,11111222
BP,ioos:station:wmo:42880:2,2023-02-01T14:08:00Z,27.2206,-90.0100,10.9,22.8,11111222
BP,ioos:station:wmo:42880:2,2023-02-01T14:18:00Z,27.2206,-90.0100,11.0,22.7,11111222
BP,ioos:station:wmo:42880:2,2023-02-01T14:28:00Z,27.2206,-90.0100,11.0,22.6,11111222
BP,ioos:station:wmo:42880:2,2023-02-01T14:38:00Z,27.2206,-90.0100,11.1,22.7,11111222
BP,ioos:station:wmo:42880:2,2023-02-01T14:48:00Z,27.2206,-90.0100,10.8,22.7,11111222
BP,ioos:station:wmo:42880:2,2023-02-01T14:58:00Z,27.2206,-90.0100,10.9,22.7,11111222
BP,ioos:station:wmo:42880:2,2023-02-01T15:08:00Z,27.2206,-90.0100,11.0,22.9,11111222
BP,ioos:station:wmo:42880:2,2023-02-01T15:18:00Z,27.2206,-90.0100,10.9,23.0,11111222
BP,ioos:station:wmo:42880:2,2023-02-01T15:28:00Z,27.2206,-90.0100,10.9,23.1,11111222
BP,ioos:station:wmo:42880:2,2023-02-01T15:38:00Z,27.2206,-90.0100,11.0,23.0,11111222
BP,ioos:station:wmo:42880:2,2023-02-01T15:48:00Z,27.2206,-90.0100,10.9,22.9,11111222
BP,ioos:station:wmo:42880:2,2023-02-01T15:58:00Z,27.2206,-90.0100,11.0,22.9,11111222
BP,ioos:station:wmo:42880:2,2023-02-01T16:08:00Z,27.2206,-90.0100,11.0,22.9,11111222
BP,ioos:station:wmo:42880:2,2023-02-01T16:18:00Z,27.2206,-90.0100,11.0,22.9,11111222
BP,ioos:station:wmo:42880:2,2023-02-01T16:28:00Z,27.2206,-90.0100,11.2,22.9,11111222
BP,ioos:station:wmo:42880:2,2023-02-01T16:38:00Z,27.2206,-90.0100,11.1,23.0,11111222
BP,ioos:station:wmo:42880:2,2023-02-01T16:48:00Z,27.2206,-90.0100,11.1,23.1,11111222
BP,ioos:station:wmo:42880:2,2023-02-01T16:58:00Z,27.2206,-90.0100,11.4,23.1,11111222
BP,ioos:station:wmo:42880:2,2023-02-01T17:48:00Z,27.2206,-90.0100,11.1,23.2,11111222
BP,ioos:station:wmo:42880:2,2023-02-01T17:58:00Z,27.2206,-90.0100,11.1,23.2,11111222
BP,ioos:station:wmo:42880:2,2023-02-01T18:08:00Z,27.2206,-90.0100,11.2,23.2,11111222
BP,ioos:station:wmo:42880:2,2023-02-01T18:18:00Z,27.2206,-90.0100,11.2,23.2,11111222
BP,ioos:station:wmo:42880:2,2023-02-01T18:28:00Z,27.2206,-90.0100,11.1,23.1,11111222
BP,ioos:station:wmo:42880:2,2023-02-01T18:58:00Z,27.2206,-90.0100,10.9,23.2,11111222
BP,ioos:station:wmo:42880:2,2023-02-01T19:08:00Z,27.2210,-90.0104,11.0,23.1,11111222
BP,ioos:station:wmo:42880:2,2023-02-01T19:18:00Z,27.2214,-90.0108,11.2,23.2,11111222
BP,ioos:station:wmo:42880:2,2023-02-01T19:28:00Z,27.2218,-90.0112,11.1,23.1,11111222
BP,ioos:station:wmo:42880:2,2023-02-01T19:38:00Z,27.2222,-90.0117,11.2,23.1,11111222
BP,ioos:station:wmo:42880:2,2023-02-01T19:48:00Z,27.2228,-90.0123,11.0,23.1,11111222
BP,ioos:station:wmo:42880:2,2023-02-01T19:58:00Z,27.2235,-90.0130,11.1,23.1,11111222
BP,ioos:station:wmo:42880:2,2023-02-01T20:08:00Z,27.2237,-90.0132,11.1,23.1,11111222
BP,ioos:station:wmo:42880:2,2023-02-01T20:18:00Z,27.2237,-90.0132,11.1,23.1,11111222
BP,ioos:station:wmo:42880:2,2023-02-01T20:28:00Z,27.2237,-90.0132,11.0,23.1,11111222
BP,ioos:station:wmo:42880:2,2023-02-01T20:38:00Z,27.2239,-90.0128,11.1,23.0,11111222
BP,ioos:station:wmo:42880:2,2023-02-01T20:48:00Z,27.2240,-90.0127,11.0,23.1,11111222
BP,ioos:station:wmo:42880:2,2023-02-01T20:58:00Z,27.2240,-90.0126,11.1,23.1,11111222
BP,ioos:station:wmo:42880:2,2023-02-01T21:08:00Z,27.2241,-90.0125,11.1,23.2,11111222
BP,ioos:station:wmo:42880:2,2023-02-01T21:18:00Z,27.2241,-90.0125,11.2,23.4,11111222
BP,ioos:station:wmo:42880:2,2023-02-01T21:28:00Z,27.2241,-90.0125,11.3,23.3,11111222
BP,ioos:station:wmo:42880:2,2023-02-01T21:38:00Z,27.2241,-90.0125,11.1,22.9,11111222
BP,ioos:station:wmo:42880:2,2023-02-01T21:48:00Z,27.2241,-90.0126,11.1,22.9,11111222
BP,ioos:station:wmo:42880:2,2023-02-01T21:58:00Z,27.2240,-90.0128,11.2,22.9,11111222
BP,ioos:station:wmo:42880:2,2023-02-01T22:08:00Z,27.2240,-90.0128,11.2,23.1,11111222
BP,ioos:station:wmo:42880:2,2023-02-01T22:18:00Z,27.2240,-90.0127,11.2,23.3,11111222
BP,ioos:station:wmo:42880:2,2023-02-01T22:28:00Z,27.2240,-90.0127,11.2,23.3,11111222
BP,ioos:station:wmo:42880:2,2023-02-01T22:38:00Z,27.2240,-90.0127,11.4,23.4,11111222
BP,ioos:station:wmo:42880:2,2023-02-01T22:48:00Z,27.2240,-90.0127,11.2,23.4,11111222
BP,ioos:station:wmo:42880:2,2023-02-01T22:58:00Z,27.2240,-90.0127,11.1,23.3,11111222
BP,ioos:station:wmo:42880:2,2023-02-01T23:08:00Z,27.2237,-90.0125,11.3,23.4,11111222
BP,ioos:station:wmo:42880:2,2023-02-01T23:18:00Z,27.2230,-90.0119,11.2,23.3,11111222
BP,ioos:station:wmo:42880:2,2023-02-01T23:28:00Z,27.2223,-90.0114,11.2,23.3,11111222
BP,ioos:station:wmo:42880:2,2023-02-01T23:38:00Z,27.2217,-90.0109,11.1,23.3,11111222
BP,ioos:station:wmo:42880:2,2023-02-01T23:48:00Z,27.2210,-90.0104,11.2,23.3,11111222
BP,ioos:station:wmo:42880:2,2023-02-01T23:58:00Z,27.2205,-90.0100,11.2,23.3,11111222
BP,ioos:station:wmo:42880:2,2023-02-02T00:08:00Z,27.2205,-90.0100,11.2,23.4,11111222
BP,ioos:station:wmo:42880:2,2023-02-02T00:18:00Z,27.2205,-90.0100,11.2,23.2,11111222
BP,ioos:station:wmo:42880:2,2023-02-02T00:28:00Z,27.2205,-90.0100,10.9,23.0,11111222
BP,ioos:station:wmo:42880:2,2023-02-02T00:38:00Z,27.2205,-90.0100,11.2,23.2,11111222
BP,ioos:station:wmo:42880:2,2023-02-02T00:48:00Z,27.2205,-90.0100,11.2,23.1,11111222
BP,ioos:station:wmo:42880:2,2023-02-02T00:58:00Z,27.2205,-90.0100,11.2,22.9,11111222
BP,ioos:station:wmo:42880:2,2023-02-02T01:08:00Z,27.2205,-90.0100,11.2,22.8,11111222
BP,ioos:station:wmo:42880:2,2023-02-02T01:18:00Z,27.2205,-90.0100,11.2,22.8,11111222
BP,ioos:station:wmo:42880:2,2023-02-02T01:28:00Z,27.2205,-90.0100,11.0,22.8,11111222
BP,ioos:station:wmo:42880:2,2023-02-02T01:38:00Z,27.2205,-90.0100,10.9,22.8,11111222
BP,ioos:station:wmo:42880:2,2023-02-02T01:48:00Z,27.2205,-90.0100,11.0,22.8,11111222
BP,ioos:station:wmo:42880:2,2023-02-02T01:58:00Z,27.2205,-90.0100,11.2,22.8,11111222
BP,ioos:station:wmo:42880:2,2023-02-02T02:08:00Z,27.2205,-90.0100,11.0,22.8,11111222
BP,ioos:station:wmo:42880:2,2023-02-02T02:18:00Z,27.2205,-90.0100,11.1,22.8,11111222
BP,ioos:station:wmo:42880:2,2023-02-02T02:28:00Z,27.2205,-90.0100,11.1,22.8,11111222
BP,ioos:station:wmo:42880:2,2023-02-02T02:38:00Z,27.2205,-90.0100,11.0,22.8,11111222
BP,ioos:station:wmo:42880:2,2023-02-02T02:48:00Z,27.2205,-90.0100,11.0,22.8,11111222
BP,ioos:station:wmo:42880:2,2023-02-02T02:58:00Z,27.2205,-90.0100,11.1,22.8,11111222
BP,ioos:station:wmo:42880:2,2023-02-02T03:08:00Z,27.2205,-90.0100,11.1,22.8,11111222
BP,ioos:station:wmo:42880:2,2023-02-02T03:18:00Z,27.2205,-90.0100,11.2,22.8,11111222
BP,ioos:station:wmo:42880:2,2023-02-02T03:28:00Z,27.2205,-90.0100,11.0,22.8,11111222
BP,ioos:station:wmo:42880:2,2023-02-02T03:38:00Z,27.2205,-90.0100,11.1,22.8,11111222
BP,ioos:station:wmo:42880:2,2023-02-02T03:48:00Z,27.2206,-90.0100,11.1,22.8,11111222
BP,ioos:station:wmo:42880:2,2023-02-02T03:58:00Z,27.2206,-90.0100,11.1,22.8,11111222
BP,ioos:station:wmo:42880:2,2023-02-02T04:08:00Z,27.2206,-90.0100,11.0,22.9,11111222
BP,ioos:station:wmo:42880:2,2023-02-02T04:18:00Z,27.2206,-90.0100,11.1,22.9,11111222
BP,ioos:station:wmo:42880:2,2023-02-02T04:28:00Z,27.2206,-90.0100,11.1,22.9,11111222
BP,ioos:station:wmo:42880:2,2023-02-02T04:38:00Z,27.2206,-90.0100,11.1,22.9,11111222
BP,ioos:station:wmo:42880:2,2023-02-02T04:48:00Z,27.2206,-90.0100,11.0,22.9,11111222
BP,ioos:station:wmo:42880:2,2023-02-02T04:58:00Z,27.2206,-90.0100,11.1,22.8,11111222
BP,ioos:station:wmo:42880:2,2023-02-02T05:08:00Z,27.2206,-90.0100,11.1,22.8,11111222
BP,ioos:station:wmo:42880:2,2023-02-02T05:18:00Z,27.2206,-90.0100,11.1,22.7,11111222
BP,ioos:station:wmo:42880:2,2023-02-02T05:28:00Z,27.2206,-90.0100,11.1,22.8,11111222
BP,ioos:station:wmo:42880:2,2023-02-02T05:38:00Z,27.2206,-90.0100,11.1,22.8,11111222
BP,ioos:station:wmo:42880:2,2023-02-02T05:48:00Z,27.2206,-90.0100,11.0,22.8,11111222
BP,ioos:station:wmo:42880:2,2023-02-02T05:58:00Z,27.2206,-90.0100,11.0,22.7,11111222
BP,ioos:station:wmo:42880:2,2023-02-02T06:08:00Z,27.2206,-90.0100,11.1,22.8,11111222
BP,ioos:station:wmo:42880:2,2023-02-02T06:18:00Z,27.2206,-90.0100,11.1,22.8,11111222
BP,ioos:station:wmo:42880:2,2023-02-02T06:28:00Z,27.2206,-90.0100,11.1,22.8,11111222
BP,ioos:station:wmo:42880:2,2023-02-02T06:38:00Z,27.2206,-90.0100,11.1,22.8,11111222
BP,ioos:station:wmo:42880:2,2023-02-02T06:48:00Z,27.2206,-90.0100,11.1,22.8,11111222
BP,ioos:station:wmo:42880:2,2023-02-02T06:58:00Z,27.2206,-90.0100,11.2,22.8,11111222
BP,ioos:station:wmo:42880:2,2023-02-02T07:08:00Z,27.2206,-90.0100,11.0,22.9,11111222
BP,ioos:station:wmo:42880:2,2023-02-02T07:18:00Z,27.2206,-90.0100,11.1,22.8,11111222
BP,ioos:station:wmo:42880:2,2023-02-02T07:28:00Z,27.2206,-90.0100,11.1,22.9,11111222
BP,ioos:station:wmo:42880:2,2023-02-02T07:38:00Z,27.2206,-90.0100,11.1,22.9,11111222
BP,ioos:station:wmo:42880:2,2023-02-02T07:48:00Z,27.2206,-90.0100,11.1,22.8,11111222
BP,ioos:station:wmo:42880:2,2023-02-02T07:58:00Z,27.2206,-90.0100,11.0,22.9,11111222
BP,ioos:station:wmo:42880:2,2023-02-02T08:08:00Z,27.2206,-90.0100,11.0,23.0,11111222
BP,ioos:station:wmo:42880:2,2023-02-02T08:18:00Z,27.2206,-90.0100,11.0,23.0,11111222
BP,ioos:station:wmo:42880:2,2023-02-02T08:28:00Z,27.2206,-90.0100,11.0,23.0,11111222
BP,ioos:station:wmo:42880:2,2023-02-02T08:38:00Z,27.2206,-90.0100,10.9,23.0,11111222
BP,ioos:station:wmo:42880:2,2023-02-02T08:48:00Z,27.2206,-90.0100,11.1,23.0,11111222
BP,ioos:station:wmo:42880:2,2023-02-02T08:58:00Z,27.2206,-90.0100,11.2,23.0,11111222
BP,ioos:station:wmo:42880:2,2023-02-02T09:08:00Z,27.2206,-90.0100,11.1,22.9,11111222
BP,ioos:station:wmo:42880:2,2023-02-02T09:18:00Z,27.2206,-90.0100,11.0,22.9,11111222
BP,ioos:station:wmo:42880:2,2023-02-02T09:28:00Z,27.2206,-90.0100,11.1,22.8,11111222
BP,ioos:station:wmo:42880:2,2023-02-02T09:38:00Z,27.2206,-90.0100,11.0,22.8,11111222
BP,ioos:station:wmo:42880:2,2023-02-02T09:48:00Z,27.2206,-90.0100,11.1,22.9,11111222
BP,ioos:station:wmo:42880:2,2023-02-02T09:58:00Z,27.2206,-90.0100,11.0,22.8,11111222
BP,ioos:station:wmo:42880:2,2023-02-02T10:08:00Z,27.2206,-90.0100,10.9,22.8,11111222
BP,ioos:station:wmo:42880:2,2023-02-02T10:18:00Z,27.2206,-90.0100,10.9,22.7,11111222
BP,ioos:station:wmo:42880:2,2023-02-02T10:28:00Z,27.2206,-90.0100,10.9,22.7,11111222
BP,ioos:station:wmo:42880:2,2023-02-02T10:38:00Z,27.2206,-90.0100,11.1,22.7,11111222
BP,ioos:station:wmo:42880:2,2023-02-02T10:48:00Z,27.2206,-90.0100,10.9,22.8,11111222
BP,ioos:station:wmo:42880:2,2023-02-02T10:58:00Z,27.2206,-90.0100,11.0,22.8,11111222
BP,ioos:station:wmo:42880:2,2023-02-02T11:08:00Z,27.2206,-90.0100,11.1,22.8,11111222
BP,ioos:station:wmo:42880:2,2023-02-02T11:18:00Z,27.2206,-90.0100,10.9,22.8,11111222
BP,ioos:station:wmo:42880:2,2023-02-02T11:28:00Z,27.2206,-90.0100,11.1,22.8,11111222
BP,ioos:station:wmo:42880:2,2023-02-02T11:38:00Z,27.2206,-90.0100,10.9,22.8,11111222
BP,ioos:station:wmo:42880:2,2023-02-02T11:48:00Z,27.2206,-90.0100,11.0,22.8,11111222
BP,ioos:station:wmo:42880:2,2023-02-02T11:58:00Z,27.2208,-90.0103,11.1,22.8,11111222
BP,ioos:station:wmo:42880:2,2023-02-02T12:08:00Z,27.2214,-90.0109,11.1,22.8,11111222
BP,ioos:station:wmo:42880:2,2023-02-02T12:18:00Z,27.2218,-90.0113,11.1,22.8,11111222
BP,ioos:station:wmo:42880:2,2023-02-02T12:28:00Z,27.2222,-90.0117,11.1,22.7,11111222
BP,ioos:station:wmo:42880:2,2023-02-02T12:38:00Z,27.2228,-90.0123,11.1,22.7,11111222
BP,ioos:station:wmo:42880:2,2023-02-02T12:48:00Z,27.2234,-90.0130,11.0,22.8,11111222
BP,ioos:station:wmo:42880:2,2023-02-02T12:58:00Z,27.2238,-90.0133,11.2,22.9,11111222
BP,ioos:station:wmo:42880:2,2023-02-02T13:08:00Z,27.2238,-90.0133,11.2,22.9,11111222
BP,ioos:station:wmo:42880:2,2023-02-02T13:18:00Z,27.2238,-90.0133,11.0,23.1,11111222
BP,ioos:station:wmo:42880:2,2023-02-02T13:28:00Z,27.2239,-90.0132,11.0,23.0,11111222
BP,ioos:station:wmo:42880:2,2023-02-02T13:38:00Z,27.2239,-90.0131,11.1,23.2,11111222
BP,ioos:station:wmo:42880:2,2023-02-02T13:48:00Z,27.2239,-90.0132,11.1,23.1,11111222
BP,ioos:station:wmo:42880:2,2023-02-02T13:58:00Z,27.2239,-90.0132,11.0,23.0,11111222
BP,ioos:station:wmo:42880:2,2023-02-02T14:08:00Z,27.2239,-90.0132,11.1,23.0,11111222
BP,ioos:station:wmo:42880:2,2023-02-02T14:18:00Z,27.2239,-90.0132,11.0,23.0,11111222
BP,ioos:station:wmo:42880:2,2023-02-02T14:28:00Z,27.2239,-90.0132,11.1,22.9,11111222
BP,ioos:station:wmo:42880:2,2023-02-02T14:38:00Z,27.2240,-90.0132,11.1,23.0,11111222
BP,ioos:station:wmo:42880:2,2023-02-02T14:48:00Z,27.2239,-90.0132,11.2,22.8,11111222
BP,ioos:station:wmo:42880:2,2023-02-02T14:58:00Z,27.2239,-90.0132,11.1,22.8,11111222
BP,ioos:station:wmo:42880:2,2023-02-02T15:08:00Z,27.2239,-90.0132,11.2,22.8,11111222
BP,ioos:station:wmo:42880:2,2023-02-02T15:18:00Z,27.2239,-90.0132,11.0,22.8,11111222
BP,ioos:station:wmo:42880:2,2023-02-02T15:28:00Z,27.2239,-90.0132,11.2,22.9,11111222
BP,ioos:station:wmo:42880:2,2023-02-02T15:38:00Z,27.2239,-90.0132,11.0,22.9,11111222
BP,ioos:station:wmo:42880:2,2023-02-02T15:48:00Z,27.2239,-90.0132,11.1,22.9,11111222
BP,ioos:station:wmo:42880:2,2023-02-02T15:58:00Z,27.2239,-90.0132,11.1,22.8,11111222
BP,ioos:station:wmo:42880:2,2023-02-02T16:08:00Z,27.2239,-90.0132,11.2,22.8,11111222
BP,ioos:station:wmo:42880:2,2023-02-02T16:18:00Z,27.2239,-90.0133,11.1,22.8,11111222
BP,ioos:station:wmo:42880:2,2023-02-02T16:28:00Z,27.2239,-90.0134,11.1,22.8,11111222
BP,ioos:station:wmo:42880:2,2023-02-02T16:38:00Z,27.2239,-90.0135,11.0,22.7,11111222
BP,ioos:station:wmo:42880:2,2023-02-02T16:48:00Z,27.2240,-90.0134,10.9,22.7,11111222
